Weather History for Tuscaloosa, AL

Change the Weather History Date:

Monday, December 2, 2013

  Actual Average Record
Temperature  
Mean Temperature 54 °F 50 °F  
Max Temperature 59 °F 61 °F 80 °F (1982)
Min Temperature 49 °F 39 °F 21 °F (1960)
Degree Days  
Heating Degree Days 11 15  
Month to date heating degree days 28 30  
Since 1 July heating degree days 495 467  
Growing Degree Days 4 (Base 50)    
Moisture  
Dew Point 50 °F    
Average Humidity 84    
Maximum Humidity 96    
Minimum Humidity 71    
Precipitation  
Precipitation 0.25 in 0.19 in 1.80 in (1991)
Month to date precipitation 0.25 0.38  
Year to date precipitation 44.08 48.36  
Sea Level Pressure  
Sea Level Pressure 29.85 in    
Wind  
Wind Speed 2 mph (East)    
Max Wind Speed 8 mph    
Max Gust Speed 12 mph    
Visibility 3 miles    
Events Fog , Rain    
T = Trace of Precipitation, MM = Missing Value Source: NWS Daily Summary

Daily Weather History Graph

Daily Weather History Graph

Search for Another Location

Airport:

Trip Planner

Search our weather history database for the weather conditions in past years. The results will help you decide how hot, cold, wet, or windy it might be!

Date:

Astronomy

Dec. 02, 2013 Rise Set
Actual Time 6:36 AM CST 4:42 PM CST
Civil Twilight 6:09 AM CST 5:10 PM CST
Nautical Twilight 5:39 AM CST 5:40 PM CST
Astronomical Twilight 5:09 AM CST 6:10 PM CST
Moon 6:03 AM CST (12/2) 4:44 PM CST (12/2)
Length of Visible Light 11h 00m
Length of Day
10h 06m
Waning Crescent, 0% of the Moon is Illuminated
Dec 2
Waning Crescent
Dec 2
New
Dec 9
First Quarter
Dec 17
Full
Dec 25
Last Quarter

Hourly Weather History & Observations

Time (CST) Temp. Dew Point Humidity Pressure Visibility Wind Dir Wind Speed Gust Speed Precip Events Conditions
12:41 AM 51.8 °F 46.4 °F 82% 30.01 in 2.5 mi Calm Calm - 0.03 in Rain Rain
12:50 AM 51.8 °F 46.4 °F 82% 30.01 in 5.0 mi Calm Calm - 0.04 in Rain Light Rain
12:53 AM 51.1 °F 46.9 °F 86% 30.01 in 7.0 mi Calm Calm - 0.04 in Rain Light Rain
1:53 AM 50.0 °F 46.9 °F 89% 29.98 in 7.0 mi South 6.9 mph - 0.03 in   Overcast
2:53 AM 51.1 °F 46.9 °F 86% 29.96 in 9.0 mi SW 3.5 mph - N/A   Overcast
3:53 AM 51.1 °F 48.0 °F 89% 29.94 in 8.0 mi Calm Calm - N/A   Mostly Cloudy
4:53 AM 50.0 °F 48.0 °F 93% 29.92 in 6.0 mi SE 3.5 mph - N/A   Overcast
5:53 AM 51.1 °F 48.0 °F 89% 29.93 in 2.5 mi Calm Calm - 0.04 in Rain Light Rain
6:01 AM 50.0 °F 48.2 °F 94% 29.92 in 1.2 mi Calm Calm - 0.03 in Rain Light Rain
6:05 AM 50.0 °F 48.2 °F 94% 29.92 in 3.0 mi Calm Calm - 0.03 in Rain Light Rain
6:53 AM 50.0 °F 48.0 °F 93% 29.92 in 1.8 mi Calm Calm - 0.03 in Rain Light Rain
7:09 AM 50.0 °F 48.2 °F 94% 29.92 in 3.0 mi ESE 4.6 mph - 0.00 in   Overcast
7:53 AM 53.1 °F 48.9 °F 86% 29.91 in 7.0 mi Calm Calm - 0.00 in   Overcast
8:53 AM 53.1 °F 48.9 °F 86% 29.91 in 5.0 mi SE 3.5 mph - 0.01 in   Overcast
9:53 AM 55.9 °F 52.0 °F 87% 29.91 in 8.0 mi SSW 3.5 mph - N/A   Mostly Cloudy
10:53 AM 57.0 °F 51.1 °F 81% 29.89 in 7.0 mi Calm Calm - 0.00 in   Overcast
11:53 AM 55.9 °F 53.1 °F 90% 29.86 in 4.0 mi SE 3.5 mph - 0.02 in Rain Light Rain
12:53 PM 57.0 °F 53.1 °F 87% 29.83 in 2.0 mi ESE 3.5 mph - 0.05 in Rain Rain
1:00 PM 57.2 °F 53.6 °F 88% 29.82 in 1.5 mi East 4.6 mph - 0.02 in Rain Heavy Rain
1:08 PM 57.2 °F 53.6 °F 88% 29.82 in 3.0 mi ENE 5.8 mph - 0.03 in Rain Light Rain
1:53 PM 57.9 °F 54.0 °F 87% 29.81 in 5.0 mi Calm Calm - 0.03 in   Overcast
2:43 PM 59.0 °F 55.4 °F 88% 29.80 in 4.0 mi Calm Calm - N/A   Overcast
2:53 PM 57.9 °F 55.0 °F 90% 29.79 in 5.0 mi Variable 3.5 mph - N/A   Overcast
3:53 PM 57.9 °F 54.0 °F 87% 29.78 in 7.0 mi East 3.5 mph - 0.00 in   Mostly Cloudy
4:53 PM 55.9 °F 54.0 °F 93% 29.78 in 6.0 mi NE 3.5 mph - N/A   Mostly Cloudy
5:53 PM 55.0 °F 53.1 °F 93% 29.78 in 5.0 mi NE 3.5 mph - N/A   Mostly Cloudy
6:53 PM 55.0 °F 53.1 °F 93% 29.78 in 6.0 mi Calm Calm - N/A   Mostly Cloudy
7:28 PM 51.8 °F 50.0 °F 94% 29.79 in 1.8 mi Calm Calm - N/A   Scattered Clouds
7:37 PM 51.8 °F 50.0 °F 94% 29.79 in 0.8 mi Calm Calm - N/A   Scattered Clouds
7:45 PM 51.8 °F 50.0 °F 94% 29.79 in 1.0 mi NE 3.5 mph - N/A   Scattered Clouds
7:48 PM 51.8 °F 50.0 °F 94% 29.79 in 0.8 mi ENE 4.6 mph - N/A   Mostly Cloudy
7:53 PM 51.1 °F 50.0 °F 96% 29.79 in 0.5 mi ENE 4.6 mph - N/A Fog Fog
8:30 PM 51.8 °F 50.0 °F 94% 29.79 in 1.2 mi East 4.6 mph - N/A   Mostly Cloudy
8:47 PM 53.6 °F 51.8 °F 94% 29.79 in 3.0 mi NNE 4.6 mph - N/A   Mostly Cloudy
8:48 PM 53.1 °F 52.0 °F 96% 29.79 in 3.0 mi North 3.5 mph - N/A   Mostly Cloudy
9:53 PM 53.1 °F 52.0 °F 96% 29.80 in 2.5 mi Calm Calm - N/A   Mostly Cloudy
10:10 PM 53.6 °F 51.8 °F 94% 29.80 in 1.2 mi Calm Calm - N/A   Mostly Cloudy
10:25 PM 51.8 °F 51.8 °F 100% 29.80 in 2.5 mi Calm Calm - N/A   Overcast
10:42 PM 51.8 °F 50.0 °F 94% 29.80 in 1.0 mi Calm Calm - N/A   Mostly Cloudy
10:49 PM 51.8 °F 50.0 °F 94% 29.79 in 0.5 mi Calm Calm - N/A Fog Fog
10:53 PM 50.0 °F 48.9 °F 96% 29.79 in 0.5 mi Calm Calm - N/A Fog Fog
11:00 PM 51.8 °F 50.0 °F 94% 29.79 in 0.2 mi Calm Calm - N/A Fog Fog
11:07 PM 51.8 °F 50.0 °F 94% 29.79 in 0.2 mi Calm Calm - N/A Fog Fog
11:28 PM 51.8 °F 50.0 °F 94% 29.79 in 1.0 mi Calm Calm - N/A   Mostly Cloudy
11:40 PM 51.8 °F 50.0 °F 94% 29.79 in 0.8 mi Calm Calm - N/A   Overcast
11:43 PM 51.8 °F 50.0 °F 94% 29.79 in 1.0 mi Calm Calm - N/A   Overcast
11:53 PM 52.0 °F 50.0 °F 93% 29.79 in 3.0 mi NNE 3.5 mph - N/A   Overcast